GFSNGP_500_rhum_165.txt.gz
RH
100 100 100 98 99 96 100 100 100 93 97 80 100 100 98 99 72 80 78 72 94 96 93 90 95 87 92 77 21 17 14 15 34 50 64 72 82 85 80 86 28 9 14 17
86 100 100 100 96 93 100 94 100 98 90 100 100 100 100 97 77 67 64 65 76 93 94 96 88 92 78 29 20 16 15 11 24 61 67 73 84 89 84 59 13 10 16 18
98 100 100 99 73 100 100 100 96 95 85 85 100 90 87 92 70 61 66 73 93 96 96 92 83 67 43 21 18 18 13 14 41 62 67 72 80 81 43 14 10 13 17 17
60 98 99 80 89 100 100 100 98 99 100 99 100 100 98 75 65 70 77 92 97 93 98 93 68 38 22 20 20 20 13 17 60 70 72 81 52 12 12 11 12 12 13 14
72 71 83 56 61 99 100 94 99 98 100 100 98 85 70 83 85 88 94 97 99 99 95 76 47 24 20 22 23 21 17 18 70 80 82 78 68 10 11 13 13 13 14 12
83 100 89 48 69 100 100 64 100 99 97 82 75 70 83 72 67 74 86 100 98 89 83 87 62 20 25 27 26 23 19 18 77 92 89 80 67 10 13 14 15 15 13 14
100 98 75 77 96 100 99 100 99 96 100 99 90 85 67 63 82 93 97 99 100 99 99 85 26 26 34 31 27 24 19 24 59 100 100 95 71 11 14 14 14 14 15 16
100 100 90 77 90 100 100 99 89 98 100 100 89 65 59 72 92 98 100 100 100 92 62 33 29 40 40 32 28 27 47 67 96 100 100 99 52 13 14 13 14 16 17 18
100 97 100 100 100 100 100 100 99 76 81 84 64 62 76 82 99 100 95 88 84 62 42 24 31 50 44 33 30 42 76 91 100 100 100 95 23 14 14 14 16 19 20 22
75 99 100 100 100 100 100 100 100 94 72 78 75 88 100 100 100 100 100 100 97 94 87 47 52 57 48 35 32 43 87 97 100 100 100 50 17 16 14 16 18 22 23 26
86 100 100 100 100 100 100 100 100 89 86 86 97 100 100 100 100 100 91 96 99 85 56 36 37 51 46 33 34 38 88 98 95 100 94 31 18 16 16 18 21 23 26 28
90 88 77 98 100 100 100 100 100 94 85 100 100 100 100 100 100 98 99 100 96 91 64 27 46 54 40 33 37 43 94 97 100 99 50 22 19 18 21 21 22 26 30 35
41 34 36 32 50 94 99 94 78 91 100 100 100 100 100 100 100 97 100 100 97 90 56 33 57 49 35 38 40 66 100 100 97 44 26 23 22 26 24 22 27 34 41 42
12 10 11 13 26 61 75 81 70 71 97 100 100 100 100 100 100 100 100 96 90 57 31 49 56 40 36 43 49 96 100 100 78 35 26 25 31 31 25 28 37 48 50 47
8 7 7 10 22 48 64 76 80 81 100 100 99 96 100 100 96 98 94 76 52 32 32 58 51 38 44 46 82 100 100 99 60 29 27 35 37 29 27 37 46 51 52 54
9 17 18 15 20 34 62 60 78 99 96 100 100 100 100 99 98 81 59 36 24 41 61 59 43 40 51 56 100 100 100 69 33 30 37 43 35 30 38 45 51 53 59 69
9 16 16 18 33 46 64 83 88 99 97 94 100 90 77 61 56 44 26 30 49 63 60 49 44 48 55 89 100 100 86 43 32 36 48 42 36 45 54 64 65 72 86 92
20 23 24 19 46 72 95 74 72 80 85 81 73 62 59 50 36 38 50 62 66 64 54 48 53 53 73 100 100 100 66 33 37 53 49 37 37 72 81 79 85 94 99 100
30 27 22 26 64 90 88 66 57 58 62 56 44 40 40 44 54 57 63 58 57 51 51 52 54 64 100 100 100 97 41 41 56 52 42 45 90 93 78 88 98 100 100 100
32 26 30 26 95 97 82 81 75 72 68 59 54 53 52 50 46 50 71 71 65 64 63 71 79 98 100 100 100 48 46 53 50 48 70 93 91 73 88 100 100 100 100 100
52 57 59 46 100 100 100 96 97 99 85 65 54 51 49 47 49 69 74 86 90 86 93 100 100 100 100 98 55 49 53 53 55 84 98 82 78 98 100 99 100 100 100 100
100 100 81 76 100 100 100 100 84 73 66 63 69 65 60 58 59 81 93 91 96 99 100 100 100 100 98 66 56 58 56 60 97 94 82 97 100 98 97 99 98 99 100 100
99 88 81 95 100 100 100 86 69 62 65 73 76 75 81 91 98 96 100 100 100 100 100 100 100 97 67 61 60 60 79 97 82 92 99 98 97 96 97 97 93 86 95 95
94 86 78 92 96 91 84 58 48 60 77 77 72 84 86 100 100 100 100 100 100 100 100 100 98 75 70 65 68 88 79 91 100 98 99 97 95 96 98 82 53 72 85 86
93 78 74 72 70 73 69 58 41 51 71 80 94 98 100 100 100 100 100 100 100 100 100 92 83 75 76 78 76 92 100 100 99 98 97 95 93 94 62 48 72 87 85 82
100 100 100 86 62 52 56 54 54 62 90 100 100 100 100 100 100 100 99 95 92 91 88 77 76 82 88 99 100 100 100 100 100 99 97 95 74 43 54 78 90 90 85 90
100 100 100 100 99 99 100 100 100 100 100 100 100 96 77 62 65 75 88 94 89 83 84 90 97 100 100 100 100 100 100 100 100 98 97 57 45 68 85 90 94 92 93 96

GFSNGP_500_rhum_168.txt.gz
RH
100 98 95 100 100 96 100 100 100 76 98 56 100 100 97 88 97 100 100 94 85 80 84 75 68 85 90 93 87 82 84 36 18 16 13 13 38 56 60 68 82 84 65 11
94 98 100 100 92 81 100 100 100 100 74 72 100 100 99 100 100 100 100 100 87 81 79 86 85 94 93 87 82 77 45 22 18 16 11 21 45 57 63 64 45 37 17 11
52 61 57 89 61 87 96 99 100 100 76 95 99 92 92 90 93 95 98 93 96 87 86 91 89 94 98 86 76 54 23 19 20 17 14 25 58 66 74 82 30 10 10 14
90 81 85 52 42 39 53 75 93 93 89 90 88 90 90 100 100 100 100 88 80 84 84 81 91 98 92 74 44 24 20 21 22 19 16 20 68 80 80 78 27 9 12 15
96 92 75 57 44 51 75 43 54 57 87 98 82 100 84 100 100 100 98 87 81 80 86 91 94 93 98 81 36 21 22 25 25 22 19 20 72 91 90 84 22 10 15 14
80 83 80 63 80 79 90 62 97 100 100 93 98 100 100 100 98 85 77 70 76 88 91 94 91 93 92 90 31 25 29 30 26 23 19 22 76 100 100 93 18 13 16 15
96 100 100 100 64 78 78 75 88 100 100 100 97 100 99 93 82 79 68 67 82 93 99 99 100 100 95 42 24 34 36 31 28 24 38 67 93 100 100 87 17 16 14 14
88 98 88 74 83 87 76 88 100 100 100 100 100 100 100 100 79 65 60 82 94 97 98 100 100 73 41 31 39 45 41 33 26 41 75 94 100 100 100 62 18 18 15 16
96 100 99 93 82 76 89 100 100 100 96 100 100 100 100 92 66 57 62 68 82 99 93 90 74 66 58 41 57 58 50 36 30 49 86 99 100 100 90 31 21 18 16 18
92 99 79 87 88 75 99 93 100 100 100 100 98 100 97 72 62 68 74 78 86 100 100 100 100 70 57 41 39 51 49 34 32 50 94 100 100 100 73 26 22 18 18 20
68 66 51 70 84 99 100 100 100 100 100 100 100 100 100 88 89 87 93 100 100 100 100 100 96 75 47 29 49 55 43 33 35 58 98 100 100 95 37 25 23 21 22 22
35 62 65 81 70 69 100 100 100 100 100 100 100 99 100 100 100 100 98 100 100 97 100 100 99 85 56 33 52 53 36 37 42 78 100 100 99 52 28 26 26 27 24 24
70 67 38 30 29 28 34 64 92 99 99 100 100 100 100 100 100 92 95 100 100 100 100 100 91 74 41 39 56 42 37 41 63 95 100 98 66 33 26 27 33 30 25 33
26 9 7 6 6 6 7 12 22 48 72 97 100 100 100 100 97 100 100 100 98 91 89 97 83 48 33 56 54 39 40 47 87 100 100 98 68 29 28 35 34 28 31 42
9 8 8 8 7 6 7 7 8 28 78 83 87 88 90 96 100 100 100 96 99 91 82 63 38 36 53 62 49 42 45 55 88 100 100 82 40 30 38 43 32 33 44 56
8 9 9 10 9 10 11 14 16 30 43 68 83 90 99 86 88 93 100 100 98 85 58 35 38 66 67 58 47 47 51 70 94 100 81 50 34 39 48 38 37 50 62 73
10 11 16 15 13 12 12 15 34 56 94 92 98 91 85 92 94 100 100 99 79 52 38 29 61 66 60 58 61 55 58 88 99 100 68 41 38 52 48 40 44 72 86 82
12 13 13 15 20 24 25 16 42 78 100 100 100 100 100 100 100 97 74 49 36 34 44 70 74 69 72 83 77 57 79 98 100 100 58 42 58 57 46 41 85 95 81 85
18 21 22 24 30 29 28 24 34 100 100 100 91 96 94 88 68 49 44 40 47 61 70 74 67 58 63 64 63 68 100 100 100 87 52 59 60 52 60 96 96 81 87 94
29 33 31 33 53 51 38 31 74 68 77 74 61 59 56 51 50 52 54 56 55 56 56 63 66 72 89 99 100 100 100 100 94 70 67 66 60 80 100 95 90 97 96 95
32 48 58 74 96 74 49 79 100 100 100 100 94 79 67 61 59 60 65 78 87 81 77 84 92 94 100 100 100 100 100 98 84 78 70 65 84 100 95 99 100 98 94 93
50 68 67 82 78 78 78 96 99 100 100 100 100 94 76 68 65 61 65 85 88 94 93 88 97 95 100 99 100 100 98 90 80 71 69 90 98 98 100 100 99 95 93 94
84 96 78 75 58 58 72 93 100 100 100 97 84 76 75 75 70 79 83 81 97 94 100 100 100 100 100 100 100 100 95 89 80 86 100 100 100 100 100 100 96 92 86 54
87 94 89 79 64 57 70 94 100 98 65 57 65 72 78 82 88 94 100 100 100 100 100 100 100 100 100 100 100 99 96 91 93 96 100 100 100 100 100 98 95 72 40 46
86 100 95 84 62 54 56 67 74 74 73 51 43 61 75 88 100 100 100 100 100 100 100 100 100 100 100 100 100 98 96 98 100 100 100 100 100 100 100 98 66 40 57 76
91 99 100 99 91 85 69 52 49 50 52 52 50 64 88 100 100 100 100 100 100 100 100 100 99 100 100 99 100 100 100 100 100 100 100 100 100 100 99 61 44 62 79 80
100 100 100 98 98 100 100 99 100 99 92 87 97 100 100 100 100 99 94 94 96 97 100 100 100 100 100 100 100 100 100 100 100 100 100 100 100 95 55 47 73 89 92 96

GFSNGP_500_rhum_174.txt.gz
RH
99 74 84 100 100 100 99 100 100 94 100 72 57 65 78 94 99 90 74 92 94 100 93 81 88 99 100 100 99 100 100 82 99 100 90 87 82 72 35 19 19 18 14 14
98 98 100 100 100 82 86 100 100 100 100 91 74 66 86 100 100 87 68 62 83 96 81 74 93 100 100 100 99 100 91 100 100 86 87 88 76 53 23 19 21 20 18 14
85 86 93 99 78 87 94 96 92 95 94 89 80 80 84 64 59 69 66 67 62 87 82 86 97 100 100 100 100 100 100 100 84 86 93 75 47 23 20 21 24 23 20 16
91 96 100 60 70 63 64 62 55 54 58 82 80 80 85 46 55 61 62 79 58 84 98 92 91 100 100 100 100 100 100 84 87 91 90 62 33 21 21 25 27 25 17 22
93 89 83 71 47 71 99 71 66 50 69 53 70 99 53 35 40 49 47 49 73 89 96 100 86 100 100 100 100 100 94 80 87 92 86 79 38 23 29 32 30 21 25 55
72 79 78 49 64 93 69 58 40 44 55 78 100 91 99 94 99 99 100 81 65 88 100 100 100 100 100 100 100 86 84 81 88 94 79 45 24 33 39 35 31 22 41 80
100 100 81 75 55 100 68 100 56 94 99 94 94 69 51 73 84 100 94 54 98 99 100 99 100 100 100 98 77 69 82 90 89 79 44 29 34 47 50 43 29 24 55 90
100 98 72 66 64 92 99 98 92 98 94 75 45 44 46 51 62 100 92 99 100 100 100 100 100 100 98 74 82 84 94 98 80 48 31 30 47 53 52 40 28 28 62 96
97 98 84 99 100 100 100 100 95 73 43 38 39 53 82 75 76 98 100 100 100 100 100 99 97 84 81 96 94 94 93 83 72 73 57 37 42 52 49 35 29 32 74 100
74 100 63 58 78 80 80 62 46 46 51 38 43 76 96 100 100 100 100 99 100 96 88 89 87 83 86 95 83 74 75 73 59 59 38 33 47 53 42 34 31 48 94 100
100 97 89 91 58 41 59 59 45 37 63 75 54 75 92 100 100 100 100 100 99 84 82 87 80 61 75 89 79 83 92 88 83 86 71 42 53 49 39 32 40 82 100 100
100 100 97 76 45 31 31 29 43 46 38 91 95 97 100 99 100 100 100 100 100 96 93 86 88 92 86 92 74 77 76 78 86 84 65 40 54 44 37 34 68 100 100 99
91 70 43 33 35 46 54 17 9 12 10 8 23 58 96 100 100 100 94 100 100 99 100 100 98 88 95 86 75 70 69 77 86 93 52 49 52 46 36 42 81 100 100 100
66 41 45 33 38 30 17 15 9 8 7 6 5 5 15 71 98 100 99 99 100 93 100 100 100 99 100 78 88 88 78 86 84 80 47 58 55 52 39 56 89 99 100 99
84 67 47 32 11 12 10 10 10 9 8 7 7 6 4 6 35 84 100 100 100 100 100 100 100 100 100 93 96 84 88 91 80 58 62 63 57 58 52 70 97 98 97 93
88 86 89 28 9 10 11 14 11 9 9 9 9 8 8 6 5 6 33 100 100 100 100 100 100 100 99 95 87 91 98 98 66 65 69 65 72 62 75 92 100 100 96 82
100 100 77 30 12 12 12 13 10 11 12 11 9 9 14 15 10 6 6 70 100 100 99 100 100 100 99 99 99 98 100 73 72 81 83 88 90 72 73 100 100 100 97 76
63 66 96 94 36 13 12 11 14 15 17 18 18 17 19 20 19 17 12 11 62 81 84 100 100 100 100 100 100 97 65 74 100 98 99 93 86 79 94 98 100 100 94 97
100 100 82 28 18 14 17 20 23 32 33 26 48 57 71 42 28 24 31 52 72 96 97 100 100 100 100 100 94 63 46 91 100 92 80 96 95 92 99 100 100 100 100 100
100 68 21 18 19 22 20 24 46 48 44 57 76 74 91 100 52 28 79 99 99 100 100 100 100 100 100 90 66 50 72 99 91 85 92 90 92 100 100 100 100 100 100 99
38 23 21 23 24 19 21 48 73 75 68 64 52 90 100 76 99 100 100 100 100 100 100 100 94 82 57 55 58 74 83 84 82 97 100 97 100 100 100 100 99 97 100 100
28 28 27 28 24 18 36 85 85 80 56 73 42 68 100 100 100 100 97 92 99 92 87 78 67 70 70 72 78 77 100 100 100 100 100 100 100 100 100 100 99 100 100 100
33 34 34 31 28 22 68 96 99 75 50 76 76 84 100 100 100 98 96 97 96 86 80 71 70 90 98 91 91 98 100 99 90 99 100 100 100 100 100 100 100 100 100 100
40 39 37 40 42 31 70 74 89 98 48 45 58 79 100 100 100 98 99 100 92 85 83 85 82 95 96 86 96 100 100 100 100 100 100 100 100 100 100 100 100 100 100 100
62 51 44 43 42 38 82 74 87 96 87 49 48 54 74 78 69 68 66 71 81 85 90 96 99 100 100 100 100 100 100 100 100 100 100 100 100 100 100 100 100 100 100 100
79 79 65 38 32 57 78 74 89 96 97 90 56 46 46 48 55 56 43 39 65 72 85 96 98 100 100 100 100 100 100 100 100 100 100 100 100 100 100 100 100 100 100 100
95 70 47 34 34 74 77 83 93 98 96 97 92 87 81 76 58 50 50 52 65 83 100 100 100 100 100 100 100 100 100 100 100 100 100 100 100 100 100 100 100 100 100 100

GFSNGP_500_rhum_180.txt.gz
RH
95 71 68 76 58 50 51 58 66 60 100 63 62 100 100 100 98 95 99 99 98 86 60 78 90 92 94 99 84 96 89 86 70 57 88 99 100 100 97 100 100 92 65 62
75 91 61 80 60 61 58 93 100 100 92 93 70 67 72 78 79 85 68 93 100 100 100 100 100 100 100 99 96 89 70 58 52 51 79 93 100 100 100 100 100 95 61 71
86 85 93 100 66 99 100 100 100 100 95 89 79 75 64 61 62 76 82 78 80 99 100 100 99 100 100 94 87 79 70 66 68 80 93 100 100 100 100 100 100 88 66 68
77 75 100 76 94 100 98 100 99 88 77 62 46 38 35 36 40 45 46 47 49 55 70 67 88 100 100 100 100 94 62 83 96 94 100 100 100 100 100 100 100 95 72 67
70 73 72 54 65 70 74 78 63 43 32 46 44 50 56 62 55 50 46 48 53 90 58 49 58 98 100 98 84 69 96 75 97 100 100 100 100 100 100 100 98 83 67 57
98 92 71 52 41 32 39 30 28 45 64 62 58 57 57 50 89 65 63 68 62 72 62 79 100 100 98 96 96 80 83 100 100 100 100 100 100 100 100 97 93 74 51 30
100 85 68 52 35 37 51 54 59 62 56 51 66 77 62 57 57 77 49 64 57 39 40 43 62 77 80 96 98 86 88 100 100 100 100 100 100 98 96 94 70 41 50 48
90 96 82 46 30 81 100 98 90 84 58 83 87 70 61 43 36 37 39 42 39 28 39 42 66 60 92 96 94 100 100 100 100 100 100 100 96 96 92 76 65 53 39 40
100 98 98 51 88 98 100 100 82 94 72 54 54 49 24 16 15 19 31 38 74 63 53 98 67 100 100 95 99 100 100 100 100 100 96 83 90 85 66 58 68 71 65 53
86 94 69 55 48 58 95 92 99 94 37 30 34 21 23 26 37 46 51 84 100 96 96 100 100 100 100 100 100 100 100 100 99 91 75 73 83 81 71 73 78 77 72 52
94 86 61 59 47 41 58 78 90 41 30 21 23 24 26 19 42 83 88 100 100 100 98 100 100 100 100 100 100 100 100 92 88 82 75 91 82 71 74 67 70 78 69 47
70 56 40 49 32 88 99 100 97 40 24 21 8 8 15 17 17 46 99 97 96 100 100 100 100 100 100 100 100 100 100 96 86 79 76 78 76 76 64 61 79 74 56 48
46 48 57 37 64 100 100 93 42 27 19 7 8 9 6 5 5 6 48 100 100 100 100 100 100 100 100 100 92 93 90 93 86 74 83 89 86 71 59 70 71 62 55 57
100 90 97 87 93 100 69 37 37 21 8 10 12 12 14 13 11 10 9 8 34 86 92 92 100 100 100 100 100 99 98 88 91 85 93 100 96 73 76 78 70 64 66 66
80 100 96 90 92 98 76 49 18 8 10 13 14 15 17 20 19 18 16 14 12 8 12 26 42 99 100 100 99 91 100 99 83 93 100 100 91 82 74 82 71 68 74 70
52 46 70 63 54 94 70 27 11 8 11 12 14 20 24 30 24 13 11 10 9 9 7 6 7 12 68 80 69 92 100 100 82 85 94 100 98 87 90 80 69 82 81 66
46 31 63 62 89 96 54 26 14 11 10 10 16 25 32 25 11 10 9 10 10 16 14 9 8 7 7 68 99 100 100 100 96 94 100 100 95 98 94 85 88 88 78 80
21 36 96 100 100 100 100 94 82 54 32 36 23 25 12 10 19 35 32 21 16 17 22 27 47 28 69 79 62 74 100 100 100 100 100 100 100 99 93 100 100 93 84 78
82 100 99 95 95 71 80 77 75 52 24 18 15 12 12 42 53 37 24 36 57 68 70 55 43 38 31 89 100 98 100 100 100 99 100 100 100 97 82 97 100 99 91 83
51 64 70 99 70 67 80 93 79 32 19 16 16 15 28 52 58 25 45 61 99 96 93 89 56 50 61 74 98 100 94 100 100 97 94 98 100 86 89 99 100 100 99 91
50 72 75 61 67 89 100 58 29 20 20 18 19 23 30 57 64 29 39 59 100 58 66 100 71 64 33 32 96 100 100 100 100 100 100 98 84 91 100 100 100 100 100 98
100 100 100 100 100 100 99 55 25 23 22 20 23 25 34 74 68 49 67 96 100 88 92 95 98 79 76 87 100 100 100 100 100 98 87 89 100 99 100 100 100 100 100 100
93 96 95 94 93 99 100 64 29 30 32 30 31 27 33 80 80 47 67 90 96 91 96 98 100 100 100 100 100 100 100 99 82 78 94 100 100 100 100 98 100 100 100 100
99 99 99 100 100 98 83 43 35 35 36 34 39 31 33 86 81 63 48 89 99 100 97 97 96 100 100 100 100 100 100 100 100 100 100 100 100 100 100 100 100 100 100 100
64 60 58 58 58 58 54 48 45 45 46 54 51 28 54 91 89 84 57 68 84 84 83 80 98 100 100 100 100 100 100 100 100 100 100 100 100 99 99 100 100 100 100 100
43 46 50 53 62 61 52 44 46 50 52 49 38 37 93 95 98 98 96 72 54 59 63 69 57 60 94 99 100 100 100 100 100 100 100 100 100 100 100 100 100 100 100 100
52 62 96 100 100 93 76 77 43 32 28 27 37 95 91 96 99 100 100 100 99 99 96 70 59 56 61 75 82 83 96 100 100 100 100 100 100 100 100 100 100 100 100 100

GFSNGP_500_rhum_183.txt.gz
RH
100 87 100 100 100 100 100 100 91 81 95 98 85 83 68 64 78 98 99 100 99 94 94 99 96 96 99 98 98 100 100 100 100 90 73 77 67 62 84 100 88 100 100 100
96 100 100 100 98 100 100 98 90 79 66 67 72 59 89 100 83 91 98 94 100 96 79 85 89 96 99 100 100 100 99 100 100 98 81 66 67 63 92 90 100 100 100 100
75 84 87 85 80 87 93 98 98 87 61 47 72 100 100 100 100 95 98 98 95 79 50 40 36 61 64 92 100 100 100 98 100 100 90 74 77 92 100 94 100 100 100 100
99 94 82 50 52 52 100 100 98 72 74 100 100 100 100 91 78 82 78 53 23 23 23 27 27 27 31 40 54 76 94 96 98 100 100 88 61 84 81 100 99 100 100 100
73 58 54 66 71 96 99 57 36 58 78 63 71 74 49 29 25 21 24 28 36 44 44 39 36 38 41 42 47 77 100 99 100 100 99 60 80 98 100 100 100 100 100 100
100 100 59 51 75 56 26 29 51 50 40 34 42 38 41 37 30 35 34 30 43 50 45 38 39 53 42 27 44 78 100 100 100 100 77 69 88 100 100 95 100 100 100 100
100 100 88 75 71 44 28 39 52 29 30 34 40 56 54 40 31 35 27 18 19 25 30 40 34 29 61 62 74 100 100 100 96 97 89 100 100 100 99 100 100 100 93 72
100 100 99 99 100 76 58 57 44 62 77 68 56 38 37 50 31 28 25 18 17 27 27 30 30 37 27 39 57 79 85 71 84 99 100 100 100 99 100 100 100 97 72 61
84 81 100 99 100 98 100 70 76 69 88 76 55 48 32 29 26 19 16 14 13 26 35 48 81 60 43 85 82 69 77 100 100 100 100 100 100 100 100 100 98 72 48 48
95 100 100 100 100 99 68 72 80 77 69 80 67 35 28 24 15 13 17 16 34 66 92 100 100 93 63 84 100 100 100 100 100 100 100 100 100 100 99 91 53 46 53 62
92 100 100 100 86 100 90 56 42 48 79 77 29 19 15 16 20 18 18 32 60 100 97 100 100 100 100 100 100 100 100 100 100 100 100 100 100 98 93 59 55 54 55 55
100 100 88 85 65 75 54 44 46 52 92 53 26 26 11 10 12 8 11 40 83 100 95 100 100 100 100 100 100 100 100 100 100 100 100 99 98 73 62 58 58 57 54 50
41 75 88 93 72 47 38 76 100 100 100 48 24 9 6 8 6 7 9 12 53 99 100 98 100 100 100 100 99 99 100 100 100 100 100 97 80 68 64 62 60 63 62 59
32 47 76 89 60 41 39 76 100 100 72 28 7 8 10 13 15 16 16 19 20 13 22 40 60 88 99 100 100 100 100 100 99 99 98 85 76 74 76 80 72 66 58 58
66 37 73 100 81 99 99 97 92 56 42 9 8 9 11 20 19 23 23 26 14 12 12 11 11 12 23 55 98 100 100 100 100 100 98 91 86 89 88 89 85 77 69 67
56 39 75 97 89 99 91 82 100 45 14 8 10 12 26 18 24 34 35 25 17 14 12 9 9 8 9 7 12 58 100 100 97 100 100 100 99 100 97 89 88 82 77 73
48 47 55 85 84 74 84 92 72 31 13 8 8 9 13 14 24 35 14 10 11 9 9 13 14 12 7 7 6 8 15 90 100 99 100 100 100 100 94 100 100 90 82 83
37 43 54 61 54 55 51 99 44 24 25 26 29 32 36 36 30 11 10 13 23 28 22 18 24 26 18 13 17 8 11 38 54 65 77 100 100 100 100 100 100 94 85 90
44 44 42 46 72 100 100 100 100 88 83 67 46 39 28 16 14 12 26 48 40 24 33 47 69 68 50 42 90 97 100 65 62 78 93 98 100 100 100 100 100 96 87 97
54 40 48 45 100 100 98 99 97 85 57 53 66 26 20 18 18 18 50 62 44 33 43 47 89 54 67 55 64 95 100 100 100 100 100 100 100 100 100 100 100 100 97 98
86 100 100 100 95 96 100 100 100 94 100 91 41 22 21 20 18 20 42 72 61 44 60 98 92 48 96 84 57 71 100 100 100 100 100 100 100 100 100 100 100 98 100 100
99 97 100 100 99 100 100 100 100 100 100 80 41 29 25 22 18 26 37 67 69 49 80 87 86 70 82 63 51 52 73 97 100 100 100 100 100 100 100 100 100 100 100 100
100 100 100 100 100 98 100 100 100 100 100 100 45 31 32 31 28 32 43 62 66 44 76 84 96 98 95 88 54 33 26 33 82 89 100 100 100 100 100 99 100 100 100 100
94 100 100 98 100 100 100 100 100 100 100 100 92 45 36 38 29 33 61 69 61 42 75 92 99 100 97 82 95 87 78 90 99 88 86 88 100 100 97 100 100 100 100 100
34 45 55 64 69 67 67 68 67 69 74 77 50 36 44 42 35 46 71 73 68 43 54 75 89 97 99 100 97 100 99 99 100 100 100 100 96 98 100 100 100 100 100 100
67 65 50 43 44 44 46 49 48 45 42 41 39 40 33 28 40 79 78 78 78 74 56 52 64 69 78 87 100 100 99 100 100 100 100 100 100 100 100 100 100 100 100 100
95 57 43 45 58 70 80 94 99 97 73 50 31 27 26 56 88 84 82 83 86 86 86 88 85 84 67 63 63 97 100 100 100 100 100 100 100 100 100 100 100 100 100 100